Date String (YYYY-MM-DD hh:mm:ss) UTC,Instrument flags,absolute air pressure of the measurement (hPa),sample flow rate (lpm),inlet stack bypass flow (lpm),air temperature of the measurement (°C),ambient temperature measured by the external sensor (°C),aerosol sample conditioner tube jacket temperature (°C),OPC LED temperature (°C),internal box temperature (°C),relative humidity of the measurement (%),span deviation,mass concentration of particles derived from Lorenz-Mie calculation of OPC scattering (μg/m³),mass concentration of particles derived from Lorenz-Mie calculation of OPC scattering (μg/m³),mass concentration of particles derived from Lorenz-Mie calculation of OPC scattering (μg/m³)
DateTimeUTC,F1_M11,P_M11,Q1_M11,Q2_M11,T1_M11,T2_M11,T3_M11,T4_M11,T5_M11,U1_M11,ZSPAN_M11,X2_M11,X0_M11,X1_M11
2024-01-01 15:00:00,SystemResetWarning,0831.0,5.00,000.00,018.8,018.1,000.0,027.1,020.1,15.3,0000.0,0002.17,0002.63,0001.97
2024-01-01 15:01:00,SystemResetWarning,0831.1,5.00,000.00,018.8,018.1,000.0,027.1,020.1,15.3,0000.0,0002.14,0002.57,0001.95
2024-01-01 15:02:00,SystemResetWarning,0831.1,5.00,000.00,018.8,018.1,000.0,027.1,020.1,15.3,0000.0,0002.10,0002.47,0001.94
2024-01-01 15:03:00,SystemResetWarning,0831.1,5.00,000.00,018.8,018.1,000.0,027.1,020.1,15.3,0000.0,0002.11,0002.49,0001.94
2024-01-01 15:04:00,SystemResetWarning,0831.1,5.00,000.00,018.8,018.1,000.0,027.1,020.1,15.3,0000.0,0002.11,0002.52,0001.95
2024-01-01 15:05:00,SystemResetWarning,0831.2,5.00,000.00,018.8,018.1,000.0,027.1,020.1,15.4,0000.0,0002.11,0002.52,0001.95
2024-01-01 15:06:00,SystemResetWarning,0831.1,5.00,000.00,018.8,018.1,000.0,027.1,020.1,15.3,0000.0,0002.13,0002.94,0001.95
2024-01-01 15:07:00,SystemResetWarning,0831.1,5.00,000.00,018.8,018.2,000.0,027.1,020.1,15.2,0000.0,0002.12,0004.30,0001.95
2024-01-01 15:08:00,SystemResetWarning,0831.1,5.00,000.00,018.8,018.2,000.0,027.1,020.1,15.2,0000.0,0002.13,0004.30,0001.96
2024-01-01 15:09:00,SystemResetWarning,0831.1,5.00,000.00,018.8,018.2,000.0,027.1,020.1,15.1,0000.0,0002.12,0004.25,0001.96
2024-01-01 15:10:00,SystemResetWarning,0831.1,5.00,000.00,018.8,018.2,000.0,027.1,020.2,15.2,0000.0,0002.09,0004.14,0001.96
2024-01-01 15:11:00,SystemResetWarning,0831.1,5.00,000.00,018.8,018.2,000.0,027.1,020.2,15.3,0000.0,0002.11,0004.19,0001.95
2024-01-01 15:12:00,SystemResetWarning,0831.1,5.00,000.00,018.8,018.2,000.0,027.1,020.2,15.5,0000.0,0002.13,0004.35,0001.95
2024-01-01 15:13:00,SystemResetWarning,0831.2,5.00,000.00,018.8,018.2,000.0,027.1,020.2,15.6,0000.0,0002.16,0004.47,0001.95
2024-01-01 15:14:00,SystemResetWarning,0831.1,5.00,000.00,018.8,018.2,000.0,027.1,020.2,15.6,0000.0,0002.18,0004.54,0001.94
2024-01-01 15:15:00,SystemResetWarning,0831.2,5.00,000.00,018.8,018.2,000.0,027.1,020.2,15.6,0000.0,0002.19,0004.58,0001.94
2024-01-01 15:16:00,SystemResetWarning,0831.2,5.00,000.00,018.9,018.2,000.0,027.1,020.2,15.7,0000.0,0002.22,0004.68,0001.95
2024-01-01 15:17:00,SystemResetWarning,0831.2,5.00,000.00,018.9,018.2,000.0,027.2,020.2,15.6,0000.0,0002.23,0004.47,0001.98
2024-01-01 15:18:00,SystemResetWarning,0831.2,5.00,000.00,018.9,018.2,000.0,027.2,020.3,15.6,0000.0,0002.25,0003.07,0001.99
2024-01-01 15:19:00,SystemResetWarning,0831.2,5.00,000.00,018.9,018.2,000.0,027.2,020.3,15.5,0000.0,0002.28,0003.22,0002.00
2024-01-01 15:20:00,SystemResetWarning,0831.2,5.00,000.00,018.9,018.2,000.0,027.2,020.3,15.5,0000.0,0002.35,0003.31,0002.07
2024-01-01 15:21:00,SystemResetWarning,0831.2,5.00,000.00,018.9,018.2,000.0,027.2,020.3,15.4,0000.0,0002.41,0003.69,0002.12
2024-01-01 15:22:00,SystemResetWarning,0831.2,5.00,000.00,018.9,018.3,000.0,027.2,020.3,15.7,0000.0,0002.47,0004.13,0002.19
2024-01-01 15:23:00,SystemResetWarning,0831.2,5.00,000.00,018.9,018.3,000.0,027.2,020.3,16.1,0000.0,0002.57,0004.15,0002.28
2024-01-01 15:24:00,SystemResetWarning,0831.3,5.00,000.00,018.9,018.3,000.0,027.2,020.3,16.0,0000.0,0002.64,0004.22,0002.36
2024-01-01 15:25:00,SystemResetWarning,0831.3,5.00,000.00,019.0,018.3,000.0,027.2,020.3,16.1,0000.0,0002.72,0004.35,0002.43
2024-01-01 15:26:00,SystemResetWarning,0831.3,5.00,000.00,019.0,018.3,000.0,027.2,020.4,16.3,0000.0,0002.79,0004.40,0002.51
2024-01-01 15:27:00,SystemResetWarning,0831.3,5.00,000.00,019.0,018.4,000.0,027.2,020.4,16.4,0000.0,0002.87,0004.46,0002.59
2024-01-01 15:28:00,SystemResetWarning,0831.3,5.00,000.00,019.0,018.4,000.0,027.2,020.4,16.5,0000.0,0002.94,0004.43,0002.66
2024-01-01 15:29:00,SystemResetWarning,0831.3,5.00,000.00,019.0,018.4,000.0,027.3,020.4,16.3,0000.0,0003.01,0004.55,0002.72
2024-01-01 15:30:00,SystemResetWarning,0831.3,5.00,000.00,019.0,018.4,000.0,027.3,020.4,16.6,0000.0,0003.07,0004.55,0002.76
2024-01-01 15:31:00,SystemResetWarning,0831.3,5.00,000.00,019.0,018.4,000.0,027.3,020.5,16.5,0000.0,0003.05,0004.55,0002.73
2024-01-01 15:32:00,SystemResetWarning,0831.3,5.00,000.00,019.0,018.5,000.0,027.3,020.5,16.3,0000.0,0002.98,0004.17,0002.66
2024-01-01 15:33:00,SystemResetWarning,0831.3,5.00,000.00,019.1,018.5,000.0,027.3,020.5,16.8,0000.0,0002.91,0003.68,0002.61
2024-01-01 15:34:00,SystemResetWarning,0831.3,5.00,000.00,019.1,018.5,000.0,027.3,020.5,16.2,0000.0,0002.81,0003.56,0002.53
2024-01-01 15:35:00,SystemResetWarning,0831.3,4.99,000.00,019.1,018.5,000.0,027.3,020.5,16.8,0000.0,0002.74,0003.92,0002.45
2024-01-01 15:36:00,SystemResetWarning,0831.3,5.00,000.00,019.1,018.5,000.0,027.3,020.5,16.5,0000.0,0002.61,0004.66,0002.37
2024-01-01 15:37:00,SystemResetWarning,0831.3,4.99,000.00,019.1,018.6,000.0,027.3,020.6,16.5,0000.0,0002.53,0004.65,0002.28
2024-01-01 15:38:00,SystemResetWarning,0831.3,5.00,000.00,019.1,018.6,000.0,027.4,020.6,16.2,0000.0,0002.42,0004.50,0002.20
2024-01-01 15:39:00,SystemResetWarning,0831.3,5.01,000.00,019.1,018.6,000.0,027.4,020.6,16.0,0000.0,0002.34,0004.38,0002.12
2024-01-01 15:40:00,SystemResetWarning,0831.3,5.01,000.00,019.1,018.6,000.0,027.4,020.6,15.9,0000.0,0002.28,0004.22,0002.08
2024-01-01 15:41:00,SystemResetWarning,0831.3,4.99,000.00,019.2,018.6,000.0,027.4,020.6,16.0,0000.0,0002.27,0004.23,0002.06
2024-01-01 15:42:00,SystemResetWarning,0831.3,5.00,000.00,019.2,018.6,000.0,027.4,020.6,16.3,0000.0,0002.26,0004.18,0002.05
2024-01-01 15:43:00,SystemResetWarning,0831.3,5.00,000.00,019.2,018.7,000.0,027.4,020.7,16.6,0000.0,0002.31,0004.25,0002.10
2024-01-01 15:44:00,SystemResetWarning,0831.3,4.99,000.00,019.2,018.7,000.0,027.4,020.7,16.5,0000.0,0002.38,0004.38,0002.14
2024-01-01 15:45:00,SystemResetWarning,0831.3,4.99,000.00,019.2,018.7,000.0,027.4,020.7,16.2,0000.0,0002.42,0004.44,0002.17
2024-01-01 15:46:00,SystemResetWarning,0831.3,5.00,000.00,019.2,018.7,000.0,027.5,020.7,15.9,0000.0,0002.46,0004.37,0002.21
2024-01-01 15:47:00,SystemResetWarning,0831.3,5.00,000.00,019.3,018.7,000.0,027.5,020.7,15.9,0000.0,0002.54,0003.19,0002.28
2024-01-01 15:48:00,SystemResetWarning,0831.3,5.00,000.00,019.3,018.8,000.0,027.5,020.8,16.4,0000.0,0002.59,0003.18,0002.33
2024-01-01 15:49:00,SystemResetWarning,0831.3,5.00,000.00,019.3,018.8,000.0,027.5,020.8,16.6,0000.0,0002.68,0003.53,0002.39
2024-01-01 15:50:00,SystemResetWarning,0831.3,5.00,000.00,019.3,018.8,000.0,027.5,020.8,16.7,0000.0,0002.74,0003.82,0002.45
2024-01-01 15:51:00,SystemResetWarning,0831.3,5.00,000.00,019.3,018.8,000.0,027.5,020.8,16.4,0000.0,0002.77,0003.87,0002.48
2024-01-01 15:52:00,SystemResetWarning,0831.3,5.00,000.00,019.3,018.8,000.0,027.5,020.8,16.7,0000.0,0002.80,0003.88,0002.51
2024-01-01 15:53:00,SystemResetWarning,0831.3,5.00,000.00,019.4,018.9,000.0,027.6,020.9,16.3,0000.0,0002.80,0003.86,0002.52
2024-01-01 15:54:00,SystemResetWarning,0831.3,5.00,000.00,019.4,018.9,000.0,027.6,020.9,16.1,0000.0,0002.81,0003.86,0002.55
2024-01-01 15:55:00,SystemResetWarning,0831.3,5.00,000.00,019.4,018.9,000.0,027.6,020.9,16.4,0000.0,0002.83,0003.84,0002.58
2024-01-01 15:56:00,SystemResetWarning,0831.3,5.01,000.00,019.4,018.9,000.0,027.6,020.9,16.2,0000.0,0002.89,0003.94,0002.62
2024-01-01 15:57:00,SystemResetWarning,0831.3,5.00,000.00,019.4,018.9,000.0,027.6,020.9,16.7,0000.0,0002.88,0003.88,0002.63
2024-01-01 15:58:00,SystemResetWarning,0831.3,5.00,000.00,019.5,019.0,000.0,027.6,020.9,17.2,0000.0,0002.90,0003.90,0002.64
2024-01-01 15:59:00,SystemResetWarning,0831.3,5.00,000.00,019.5,019.0,000.0,027.7,021.0,16.7,0000.0,0002.96,0003.96,0002.65
